Find MisrSat 1

NORAD ID: 31117 Int'l Des: 2007-012 Owner: NARSS Country: EG operational
LEOCIRCULARRETROGRADESSO

Current View

Loading 3D Globe...

About MisrSat 1

Description loading...

Upcoming Passes

Passes for default location (London). Set your location on the main map for personalized predictions.

Altitude History

Loading altitude history...

Two-Line Element Set

1 31117U 07012A 26150.81142377 .00001353 00000-0 18718-3 0 9990
2 31117 98.0588 106.9459 0005444 145.0196 215.1374 14.79713625 27142
Epoch: May 30, 2026 • Age: 6 hours

Current Status

Altitude 642.8 km
Velocity 7.53 km/s
Sub-Earth Point -23.49°S, 165.75°W
Launch Date Apr 17, 2007
Age 19.1 years
Type other

Technical Details

Classification Payload
Mass 165.00 kg
Dry Mass 165.00 kg
Total Mass 165.00 kg
Length 0.50 m
Diameter 0.50 m
Span 2.00 m
Shape Box + 4 Pan + Ant
Manufacturer YUZHUA
Bus Type Egyptsat
Phase Status In Orbit
Owner/State NARSS/EG

Most Searched